Regional Weather Roundup
Issued by NWS

Home | Current Version | Previous Version | Graphics & Text | Print | Product List | Glossary On
Versions: 1 2 3 4 5 6 7 8 9 10 11 12 13 14 15 16 17 18 19 20 21 22 23 24 25 26 27 28 29 30 31 32 33 34 35 36 37 38 39 40 41 42 43 44 45 46 47 48 49 50
000
ASUS43 KLOT 271312
RWRIL

ILLINOIS REGIONAL WEATHER ROUNDUP
NATIONAL WEATHER SERVICE CHICAGO/ROMEOVILLE IL
800 AM CDT FRI MAR 27 2015

NOTE: "FAIR" INDICATES FEW OR NO CLOUDS BELOW 12,000 FEET WITH NO
SIGNIFICANT WEATHER AND/OR OBSTRUCTIONS TO VISIBILITY.

* THESE STATIONS ARE NOT UNDER NWS QUALITY CONTROL. THEY ALSO MAY NOT
  REPORT WEATHER SUCH AS PRECIPITATION OR FOG.

ILZ001-002-007-009-015-016-024-271400-
NORTHWEST ILLINOIS

CITY           SKY/WX    TMP DP  RH WIND       PRES   REMARKS
MOLINE         PTSUNNY   27  11  51 N12       30.19R WCI  17
STERLING*      SUNNY     25  10  54 N13G18    30.20R WCI  13
SAVANNA*       SUNNY     23   8  52 N9        30.22R WCI  13
$$

ILZ003-004-008-010-011-017-018-271400-
NORTH CENTRAL ILLINOIS

CITY           SKY/WX    TMP DP  RH WIND       PRES   REMARKS
ROCKFORD       SUNNY     22   4  46 N18       30.21R WCI   7
FREEPORT*      SUNNY     20  10  66 N10G17    30.21R WCI   9
ROCHELLE*      SUNNY     22   9  57 N16       30.18R WCI   8
DE KALB*       MOSUNNY   21  11  65 N17G23    30.16R WCI   7
PERU*          SUNNY     26  13  59 N20       30.17S WCI  12
$$

ILZ005-006-012>014-019>023-271400-
NORTHEAST ILLINOIS

CITY           SKY/WX    TMP DP  RH WIND       PRES   REMARKS
CHICAGO-OHARE  PTSUNNY   22   8  55 N15       30.15R WCI   9
CHICAGO-MIDWAY FLURRIES  26  16  65 N16       30.14R WCI  14
AURORA         SUNNY     24  14  65 N18       30.15R WCI  10
LANSING*       FLURRIES  26  17  69 N15       30.13R WCI  13
JOLIET*        LGT SNOW  27  22  83 NE9       30.15R WCI  17
WAUKEGAN       SUNNY     20   5  52 N10G18    30.15R WCI   9
DUPAGE AIRPORT CLOUDY    23   8  52 N17       30.14R WCI   9
WHEELING       PTSUNNY   21   6  52 N13G20    30.17R WCI   9
MORRIS*        SUNNY     25  17  70 N9        30.14R WCI  15
ROMEOVILLE*    LGT SNOW  24  20  85 NE15      30.14R WCI  11
NORTHERLY ISL    N/A     26  15  63 NW17        N/A  WCI  13
$$

LMZ740>746-271400-
SOUTHERN LAKE MICHIGAN

STATION/POSITION SKY/WX   TEMP    WIND        PRES    VSBY  WAVE
                          AIR SEA DIR/SP/G                  HT/PER
                          (F)     (DEG/KT/KT) (MB)    (MI)  (FT/S)
HARRISON CRIB              25     360/ 23/ 28   N/A
BURNHAM HARBOR             26     320/ 18/ 22   N/A
CALUMET HARBOR             25     340/ 16/ 22 1018.8R
BURNS HARBOR               27      10/ 21/ 26 1019.6R
MICHIGAN CITY              26     360/ 26/ 29   N/A
$$

ILZ025>027-034>036-040-047-049-050-058-095>099-271400-
WEST-CENTRAL ILLINOIS

CITY           SKY/WX    TMP DP  RH WIND       PRES   REMARKS
QUINCY         MOSUNNY   31  22  69 N9        30.17R WCI  23
GALESBURG*     CLOUDY    26  17  69 NE17      30.18R WCI  13
MACOMB*        CLOUDY    29  26  87 N8        30.20R WCI  21
JACKSONVILLE*  CLOUDY    31  25  78 N6        30.16R WCI  25
PITTSFIELD*    CLOUDY    31  24  76 N8        30.18R WCI  24
$$

ILZ028>032-037-038-041>044-048-051>054-059>061-271400-
CENTRAL ILLINOIS

CITY           SKY/WX    TMP DP  RH WIND       PRES   REMARKS
PONTIAC        MOSUNNY   28  20  72 N15       30.14S WCI  16
BLOOMINGTON    CLOUDY    28  19  69 N14       30.13R WCI  17
DECATUR        CLOUDY    31  22  69 N12       30.12R WCI  22
PEORIA         MOSUNNY   29  19  66 N6        30.17R WCI  23
LACON*         SUNNY     27  13  56 N12       30.16R WCI  17
LINCOLN*       CLOUDY    31  23  74 N9        30.16R WCI  22
SPRINGFIELD    PTSUNNY   31  23  72 N7        30.15R WCI  24
TAYLORVILLE    CLOUDY    32  25  74 N13       30.13R WCI  22
$$

ILZ033-039-045-046-055>057-062-063-271400-
EAST-CENTRAL ILLINOIS

CITY           SKY/WX    TMP DP  RH WIND       PRES   REMARKS
CHAMPAIGN      CLOUDY    31  21  66 N14       30.10R WCI  21
DANVILLE*      CLOUDY    29  26  86 N8        30.06S WCI  21
RANTOUL*       CLOUDY    32  24  73 N13       30.10R WCI  22
MATTOON        CLOUDY    32  27  81 N13       30.08R WCI  22
PARIS*         CLOUDY    32  28  86 N5        30.09R WCI  27
$$

ILZ079-100>102-271400-
SOUTHWEST ILLINOIS

CITY           SKY/WX    TMP DP  RH WIND       PRES   REMARKS
ALTON          MOSUNNY   34  23  64 N7        30.14R WCI  28
BELLEVILLE     PTSUNNY   32  30  93 N8        30.12R WCI  25
CAHOKIA*       CLOUDY    34  28  79 N12       30.15R WCI  25
SPARTA*        LGT SNOW  32  30  92 N8        30.13R WCI  25
$$

ILZ064>066-069>071-074>076-080>082-084>086-088>090-092>094-271400-
SOUTH-CENTRAL ILLINOIS

CITY           SKY/WX    TMP DP  RH WIND       PRES   REMARKS
CARBONDALE     CLOUDY    37  30  75 N10       30.09R WCI  30
CAIRO*         CLOUDY    38  32  77 N9        30.07S WCI  32
EFFINGHAM*     CLOUDY    33  26  77 N9        30.11R HAZE    WCI  25
MARION         CLOUDY    37  30  75 N12       30.09R WCI  30
MT. VERNON     CLOUDY    34  25  69 N3        30.10R
CENTRALIA*     CLOUDY    33  30  89 NW10      30.10R FOG     WCI  25
SALEM*         CLOUDY    35  31  87 NW12      30.10S WCI  27
METROPOLIS*    CLOUDY    38  35  90 N8        30.06R WCI  32
$$

ILZ067-068-072-073-078-083-087-091-271400-
SOUTHEAST ILLINOIS

CITY           SKY/WX    TMP DP  RH WIND       PRES   REMARKS
LAWRENCEVILLE  PTSUNNY   34  27  75 N12       30.07R WCI  25
FLORA*         PTSUNNY   34  28  80 N12       30.09S WCI  25
FAIRFIELD*     PTSUNNY   35  29  79 NW7       30.08R WCI  29
HARRISBURG*    CLOUDY    36  30  79 N10       30.08R WCI  28
ROBINSON*      CLOUDY    33  29  85 N9        30.09R WCI  25
CARMI*         CLOUDY    37  30  75 N12       30.06R WCI  30
$$

ABBREVIATIONS USED IN REMARKS
   TC - TEMPERATURE IN CELSIUS
  WCI - WIND CHILL INDEX
   HX - HEAT INDEX
  VSB - VISIBILITY
$$




USA.gov is the U.S. government's official web portal to all federal, state and local government web resources and services.